www.pogodaiklimat.ru

ПОГОДА на Базе ВВС Уайтман, MO

  • Прогноз погоды на Базе ВВС Уайтман
  • Монитор погоды на Базе ВВС Уайтман
  • Климат на Базе ВВС Уайтман

АРХИВ ПОГОДЫ на Базе ВВС Уайтман

Время (UTC), дата Ветер
(напр.,м/с)
 
Видим.   Явления Облачность Т
(С)
Тd
(С)
f
(%)
Тe
(С)
Тes
(С)
Комфортность

P
(гПа)

Po
(гПа)
Тmin
(С)
Tmax
(С)
R
(мм)
SD
(см)
18:56 21.08 СВ  16 км    8/0 2400 м
[средняя] 
+28.4  +20.9  64  +36  +42  очень
душно 
1015.4  984.3         
19:56 21.08 СВ  16 км    8/0 2400 м
[средняя] 
+28.8  +22.0  67  +37  +43  очень
душно 
1014.4  983.3         
20:56 21.08 СВ  16 км    10/0 3000 м
[средняя] 
+27.9  +22.3  72  +37  +39  очень
душно 
1013.0  982.0         
21:56 21.08 СВ  16 км    8/0 5100 м
[средняя] 
+27.1  +23.1  79  +36  +38  очень
душно 
1013.4  982.3         
22:56 21.08 С  16 км    8/0 4500 м
[средняя] 
+25.5  +22.8  85  +34  +35  очень
душно 
1013.4  982.3  +25.5  +29.6     
23:56 21.08 С  16 км    8/0 3600 м
[средняя] 
+24.6  +23.0  91  +33  +33  очень
душно 
  982.0         
00:56 22.08 В  16 км    8/0 3000 м
[средняя] 
+24.3  +23.2  94  +33  +33  очень
душно 
  981.3         
01:56 22.08 С  10 км  слабый дождь  8/0 3600 м
[средняя] 
+23.5  +23.3  99  +32  +32  очень
душно 
1013.8  982.6         
02:31 22.08 СВ  10 км  гроза со слабым дождем  8/0 3000 м
[средняя] 
+23.0  +23.0  100  +32  +32  очень
душно 
1014.5  983.3         
03:19 22.08 Ю  16 км  слабый дождь, гроза  8/0 3000 м
[средняя] 
+23.0  +23.0  100  +32  +32  очень
душно 
1016.2  984.9         
03:54 22.08 В  16 км  гроза  8/0 3000 м
[средняя] 
+22.0  +22.0  100  +29  +29  очень
душно 
1015.5  984.3         
03:56 22.08 В  16 км    8/8 300 м  +22.1  +22.1  100  +29  +29  очень
душно 
1015.1  983.9         
04:00 22.08 В  16 км  гроза  8/0 3000 м
[средняя] 
+22.0  +22.0  100  +29  +29  очень
душно 
1014.8  983.6         
04:44 22.08 СВ  16 км    8/0 2700 м
[средняя] 
+22.0  +22.0  100  +29  +29  очень
душно 
1014.1  983.0         
04:56 22.08 СВ  16 км    8/5 390 м
[средняя] 
+21.7  +21.7  100  +28  +28  душно  1014.1  983.0  +21.6  +25.4  2.3   
05:06 22.08   16 км    8/8 300 м  +22.0  +22.0  100  +29  +29  очень
душно 
1014.4  983.3         
05:11 22.08   16 км    8/8 240 м  +22.0  +22.0  100  +29  +29  очень
душно 
1014.1  983.0         
05:36 22.08   16 км    10/10 270 м  +22.0  +22.0  100  +29  +29  очень
душно 
1013.7  982.6         
05:56 22.08   16 км    10/10 420 м  +21.7  +21.7  100  +28  +28  душно  1013.4  982.3         
06:31 22.08   16 км  слабый дождь  10/8 420 м
[средняя] 
+22.0  +22.0  100  +29  +29  очень
душно 
1013.4  982.3         
06:36 22.08   16 км  слабый дождь  10/8 480 м
[средняя] 
+22.0  +22.0  100  +29  +29  очень
душно 
1013.3  982.3         
06:51 22.08 СВ  16 км  слабая морось  8/8 420 м  +22.0  +22.0  100  +29  +29  очень
душно 
1013.0  982.0         
06:52 22.08 СВ  16 км    8/8 420 м  +22.0  +22.0  100  +29  +29  очень
душно 
1013.4  982.3         
06:56 22.08 СВ  16 км    8/8 420 м
[средняя] 
+21.7  +21.7  100  +28  +28  душно  1013.4  982.3         
07:01 22.08 С  16 км    8/5 420 м
[средняя] 
+22.0  +22.0  100  +29  +29  очень
душно 
1013.4  982.3         
07:02 22.08   16 км  слабый дождь  8/8 420 м
[средняя] 
+22.0  +22.0  100  +29  +29  очень
душно 
1013.4  982.3         
07:27 22.08   14 км  слабый дождь  8/8 420 м  +22.0  +22.0  100  +29  +29  очень
душно 
1013.7  982.6         
07:41 22.08 С  16 км  гроза со слабым дождем  5/5 420 м  +22.0  +22.0  100  +29  +29  очень
душно 
1014.4  983.3         
07:56 22.08   16 км  слабый дождь  10/10 390 м  +21.6  +21.6  100  +28  +28  очень
душно 
1013.7  982.6      6.1   
07:59 22.08   16 км  слабый дождь  10/10 390 м  +22.0  +22.0  100  +29  +29  очень
душно 
1013.7  982.6         
08:19 22.08 ЮВ  13 км  слабый дождь  10/10 270 м  +22.0  +22.0  100  +29  +29  очень
душно 
1013.7  982.6         
08:29 22.08 ЮВ  14 км  слабый дождь  8/8 270 м  +22.0  +22.0  100  +29  +29  очень
душно 
1013.4  982.3         
08:39 22.08 Ю  16 км  слабая морось  5/5 240 м  +21.0  +21.0  100  +27  +27  душно  1013.4  982.3         
08:56 22.08 ЮЗ  16 км  слабый дождь  2/0 2850 м
[средняя] 
+21.3  +21.3  100  +27  +27  душно  1013.4  982.3         
09:26 22.08 ЮЗ  16 км    8/8 360 м  +22.0  +22.0  100  +29  +29  очень
душно 
1013.4  982.3         
09:56 22.08   16 км    8/5 210 м
[средняя] 
+21.3  +21.3  100  +27  +27  душно  1013.8  982.6         
10:11 22.08   16 км    8/8 870 м
[средняя] 
+21.0  +21.0  100  +26  +26  душно  1014.1  983.0         
10:31 22.08   16 км    10/5 780 м
[средняя] 
+21.0  +21.0  100  +26  +26  душно  1014.1  983.0         
10:56 22.08   16 км    10/0 2250 м
[средняя] 
+21.2  +21.2  100  +27  +27  душно  1014.2  983.0  +21.2  +21.8  7.1   
11:56 22.08   16 км    8/0 2100 м
[средняя] 
+21.4  +21.4  100  +27  +27  душно  1014.2  983.0         
12:56 22.08   16 км    8/5 120 м
[средняя] 
+22.1  +22.1  100  +29  +30  очень
душно 
1014.2  983.0         
13:56 22.08 Ю  16 км    10/8 210 м
[средняя] 
+22.8  +22.8  100  +31  +32  очень
душно 
1014.9  983.6         
14:56 22.08 ЮЗ  16 км    10/8 240 м
[средняя] 
+23.3  +22.1  93  +32  +32  очень
душно 
1014.9  983.6         
15:56 22.08   16 км    10/8 240 м
[средняя] 
+23.8  +22.0  90  +31  +32  очень
душно 
1015.2  983.9         
16:56 22.08   16 км    10/10 300 м  +24.8  +21.9  84  +32  +32  очень
душно 
1014.2  983.0  +21.2  +24.8     
17:56 22.08 С  16 км    8/8 150 м  +25.2  +22.7  86  +33  +36  очень
душно 
1013.8  982.6         
18:56 22.08 СВ  16 км    8/8 390 м
[средняя] 
+26.1  +23.1  84  +35  +38  очень
душно 
1013.4  982.3         
19:56 22.08 СВ  16 км    8/5 570 м
[средняя] 
+26.6  +22.2  77  +35  +38  очень
душно 
1013.4  982.3         

 

Местоположение метеостанции Whiteman Air Force Base: широта 38.7333 долгота -93.5500 высота над уровнем моря 265 м.

В архиве по умолчанию представлена погода на Базе ВВС Уайтман за последние 1-2 суток. Обновление информации о фактической погоде в базе происходит ежечасно! Архивные данные за месяц целиком и за предыдущие месяцы Вы можете получить, выбрав интересующий диапазон дат из раскрывающегося списка и нажав кнопку "Ввод!".

Внимание! Архив погоды МЕТАР в базе сайта хранится не более 60 дней. Нет смысла пытаться выбрать более раннюю дату.

Внимание! Время в таблицах - всемирное. Для получения местного времени необходимо прибавить поправку, которая на Базе ВВС Уайтман равна -6 ч.

Ветер - указаны скорость ветра в м/с и направление, откуда дует ветер: С - северный, СВ - северо-восточный, В - восточный, ЮВ - юго-восточный, Ю - южный, ЮЗ - юго-западный, З - западный, СЗ - северо-западный.
Видимость - горизонтальная дальность видимости в метрах или километрах. При видимости от 1 до 10 км при отсутствии осадков обычно наблюдается дымка, при ухудшении видимости до 1 км и менее - туман. В сухую погоду видимость может ухудшаться дымом, пылью или мглою.
Атмосферные явления - указаны явления, наблюдавшиеся в указанный момент времени.
Облачность - указаны через наклонную черту верхняя и нижняя облачность в баллах и высота нижней границы облаков в метрах. Внимание: облачность, как и прочие метеорологические величины в США измеряются автоматическими метеостанциями. Указанные значения в баллах носят условный характер и показывают процент времени, в течение которого, в среднем, лазерный луч высотомера отражался от облаков обратно.
T - Температура воздуха - температура, измеренная на высоте 2 м над землей.
Td - Температура точки росы - температура, при понижении до которой содержащийся в воздухе водяной пар достигнет насыщения.
f - Относительная влажность воздуха - влажноcть воздуха, измеренная на высоте 2 м над землей.
Te - Эффективная температура - температура, которую ощущает одетый по сезону человек в тени. Характеристика душности погоды. При расчете учитывается влияние влажности воздуха и скорости ветра на теплоощущения человека.
Tes - Эффективная температура на солнце - температура, которую ощущает человек, с поправкой на солнечный нагрев. Характеристика знойности погоды. Зависит от высоты солнца над горизонтом, облачности и скорости ветра. Ночью, в пасмурную погоду, а также при ветре 12 м/с и более поправка равна нулю.
P - Атмосферное давление - приведенное к уровню моря атмосферное давление.
Po - Атмосферное давление - измеренное на уровне метеостанции атмосферное давление.
Tmin - Минимальная температура - минимум температуры воздуха на высоте 2 м над землей.
Tmax - Максимальная температура - максимум температуры воздуха на высоте 2 м над землей.
R - Количество осадков - Количество выпавших осадков за 3 или 6 часов, мм.
SD - Снежный покров - Высота снежного покрова, см.